• In Moldova, Republic
  • List of Countries
  • For 7 days
  • Water Temperature
  • Satellite Maps
  • Weather Map
  • Weather Widgets
  • user-avatar
    Login

    Hourly Weather Darwin

    Today, 27 May, Sunday

    Time Temperature Precipitation Wind Pressure Humidity
    00:00 +26°C° 0 mm 2 mps 759 mmHg 76%
    01:00 +26°C° 0 mm 2 mps 759 mmHg 77%
    02:00 +25°C° 0 mm 3 mps 759 mmHg 77%
    03:00 +25°C° 0 mm 2 mps 758 mmHg 79%
    04:00 +25°C° 0 mm 3 mps 759 mmHg 77%
    05:00 +24°C° 0 mm 3 mps 759 mmHg 74%
    06:00 +24°C° 0 mm 3 mps 759 mmHg 72%
    07:00 +26°C° 0 mm 3 mps 759 mmHg 66%
    08:00 +28°C° 0 mm 3 mps 759 mmHg 61%
    09:00 +31°C° 0 mm 2 mps 760 mmHg 53%
    10:00 +32°C° 0 mm 2 mps 759 mmHg 47%
    11:00 +35°C° 0 mm 2 mps 759 mmHg 42%
    12:00 +36°C° 0 mm 2 mps 758 mmHg 37%
    13:00 +37°C° 0 mm 2 mps 758 mmHg 35%
    14:00 +37°C° 0 mm 2 mps 757 mmHg 33%
    15:00 +36°C° 0 mm 2 mps 757 mmHg 34%
    16:00 +35°C° 0 mm 3 mps 757 mmHg 39%
    17:00 +33°C° 0 mm 3 mps 757 mmHg 45%
    18:00 +30°C° 0 mm 3 mps 757 mmHg 51%
    19:00 +29°C° 0 mm 2 mps 758 mmHg 57%
    20:00 +28°C° 0 mm 2 mps 758 mmHg 63%
    21:00 +27°C° 0 mm 2 mps 759 mmHg 66%
    22:00 +26°C° 0 mm 2 mps 759 mmHg 70%
    23:00 +26°C° 0 mm 2 mps 759 mmHg 73%

    Tomorrow, 28 May, Monday

    Time Temperature Precipitation Wind Pressure Humidity
    00:00 +26°C° 0 mm 2 mps 759 mmHg 76%
    01:00 +25°C° 0 mm 2 mps 759 mmHg 77%
    02:00 +25°C° 0 mm 2 mps 759 mmHg 78%
    03:00 +25°C° 0 mm 2 mps 758 mmHg 79%
    04:00 +25°C° 0 mm 3 mps 759 mmHg 80%
    05:00 +24°C° 0 mm 3 mps 759 mmHg 80%
    06:00 +24°C° 0 mm 3 mps 759 mmHg 80%
    07:00 +26°C° 0 mm 4 mps 759 mmHg 73%
    08:00 +28°C° 0 mm 4 mps 759 mmHg 65%
    09:00 +29°C° 0 mm 4 mps 759 mmHg 57%
    10:00 +32°C° 0 mm 4 mps 759 mmHg 50%
    11:00 +34°C° 0 mm 4 mps 759 mmHg 43%
    12:00 +36°C° 0 mm 4 mps 758 mmHg 37%
    13:00 +36°C° 0 mm 3 mps 758 mmHg 35%
    14:00 +37°C° 0 mm 3 mps 757 mmHg 34%
    15:00 +37°C° 0 mm 3 mps 757 mmHg 33%
    16:00 +35°C° 0 mm 3 mps 757 mmHg 37%
    17:00 +34°C° 0 mm 2 mps 757 mmHg 42%
    18:00 +31°C° 0 mm 2 mps 757 mmHg 46%
    19:00 +30°C° 0 mm 2 mps 757 mmHg 50%
    20:00 +29°C° 0 mm 2 mps 758 mmHg 55%
    21:00 +28°C° 0 mm 2 mps 758 mmHg 59%
    22:00 +27°C° 0 mm 2 mps 758 mmHg 62%
    23:00 +27°C° 0 mm 2 mps 758 mmHg 66%

    Day after tomorrow, 29 May, Tuesday

    Time Temperature Precipitation Wind Pressure Humidity
    00:00 +26°C° 0 mm 1 mps 759 mmHg 69%
    01:00 +26°C° 0 mm 2 mps 758 mmHg 66%
    02:00 +25°C° 0 mm 2 mps 758 mmHg 64%
    03:00 +25°C° 0 mm 2 mps 758 mmHg 62%
    04:00 +25°C° 0 mm 2 mps 758 mmHg 63%
    05:00 +24°C° 0 mm 3 mps 758 mmHg 63%
    06:00 +24°C° 0 mm 3 mps 758 mmHg 64%
    07:00 +26°C° 0 mm 4 mps 759 mmHg 59%
    08:00 +27°C° 0 mm 4 mps 759 mmHg 53%
    09:00 +29°C° 0 mm 5 mps 759 mmHg 47%
    10:00 +32°C° 0 mm 5 mps 759 mmHg 42%
    11:00 +34°C° 0 mm 5 mps 759 mmHg 36%
    12:00 +36°C° 0 mm 5 mps 758 mmHg 30%
    13:00 +36°C° 0 mm 5 mps 758 mmHg 29%
    14:00 +36°C° 0 mm 4 mps 757 mmHg 28%
    15:00 +37°C° 0 mm 3 mps 756 mmHg 28%
    16:00 +35°C° 0 mm 3 mps 756 mmHg 31%
    17:00 +32°C° 0 mm 2 mps 757 mmHg 35%
    18:00 +31°C° 0 mm 2 mps 757 mmHg 39%
    19:00 +30°C° 0 mm 2 mps 757 mmHg 41%
    20:00 +29°C° 0 mm 2 mps 758 mmHg 43%
    21:00 +28°C° 0 mm 2 mps 758 mmHg 45%
    22:00 +27°C° 0 mm 2 mps 758 mmHg 47%
    23:00 +27°C° 0 mm 3 mps 759 mmHg 49%

    30 May, Wednesday

    Time Temperature Precipitation Wind Pressure Humidity
    00:00 +27°C° 0 mm 3 mps 759 mmHg 52%
    01:00 +26°C° 0 mm 3 mps 759 mmHg 55%
    02:00 +25°C° 0 mm 3 mps 758 mmHg 58%
    03:00 +25°C° 0 mm 3 mps 758 mmHg 60%
    04:00 +23°C° 0 mm 4 mps 758 mmHg 62%
    05:00 +23°C° 0 mm 5 mps 759 mmHg 63%
    06:00 +23°C° 0 mm 5 mps 759 mmHg 64%
    07:00 +24°C° 0 mm 6 mps 759 mmHg 59%
    08:00 +27°C° 0 mm 7 mps 760 mmHg 54%
    09:00 +29°C° 0 mm 7 mps 760 mmHg 49%
    10:00 +32°C° 0 mm 7 mps 760 mmHg 44%
    11:00 +33°C° 0 mm 7 mps 759 mmHg 39%
    12:00 +35°C° 0 mm 6 mps 759 mmHg 35%
    13:00 +35°C° 0 mm 6 mps 758 mmHg 35%
    14:00 +36°C° 0 mm 5 mps 757 mmHg 35%
    15:00 +36°C° 0 mm 5 mps 757 mmHg 35%
    16:00 +35°C° 0 mm 4 mps 757 mmHg 38%
    17:00 +33°C° 0 mm 3 mps 757 mmHg 42%
    18:00 +31°C° 0 mm 3 mps 757 mmHg 46%
    19:00 +31°C° 0 mm 3 mps 757 mmHg 47%
    20:00 +30°C° 0 mm 3 mps 758 mmHg 49%
    21:00 +29°C° 0 mm 3 mps 759 mmHg 50%
    22:00 +29°C° 0 mm 4 mps 759 mmHg 53%
    23:00 +28°C° 0 mm 5 mps 759 mmHg 56%

    31 May, Thursday

    Time Temperature Precipitation Wind Pressure Humidity
    00:00 +28°C° 0 mm 7 mps 759 mmHg 58%
    01:00 +27°C° 0 mm 7 mps 759 mmHg 60%
    02:00 +27°C° 0 mm 7 mps 759 mmHg 62%
    03:00 +26°C° 0 mm 7 mps 759 mmHg 64%
    04:00 +26°C° 0 mm 7 mps 759 mmHg 63%
    05:00 +24°C° 0 mm 7 mps 759 mmHg 62%
    06:00 +24°C° 0 mm 7 mps 759 mmHg 61%
    07:00 +26°C° 0 mm 7 mps 759 mmHg 54%
    08:00 +28°C° 0 mm 7 mps 760 mmHg 47%
    09:00 +29°C° 0 mm 8 mps 760 mmHg 40%
    10:00 +32°C° 0 mm 7 mps 760 mmHg 38%
    11:00 +33°C° 0 mm 6 mps 759 mmHg 37%
    12:00 +35°C° 0 mm 6 mps 759 mmHg 35%
    13:00 +35°C° 0 mm 5 mps 758 mmHg 35%
    14:00 +36°C° 0 mm 5 mps 757 mmHg 34%
    15:00 +36°C° 0 mm 4 mps 757 mmHg 34%
    16:00 +35°C° 0 mm 4 mps 757 mmHg 38%
    17:00 +33°C° 0 mm 3 mps 757 mmHg 42%
    18:00 +31°C° 0 mm 3 mps 757 mmHg 47%
    19:00 +30°C° 0 mm 3 mps 758 mmHg 49%
    20:00 +29°C° 0 mm 2 mps 759 mmHg 52%
    21:00 +29°C° 0 mm 2 mps 759 mmHg 54%
    22:00 +28°C° 0.2 mm 3 mps 759 mmHg 60%
    23:00 +28°C° 0.2 mm 4 mps 759 mmHg 65%

    1 June, Friday

    Time Temperature Precipitation Wind Pressure Humidity
    00:00 +27°C° 0.2 mm 5 mps 759 mmHg 70%
    01:00 +26°C° 0.1 mm 5 mps 759 mmHg 71%
    02:00 +26°C° 0.1 mm 6 mps 759 mmHg 73%
    03:00 +24°C° 0.1 mm 6 mps 758 mmHg 74%
    04:00 +24°C° 0 mm 6 mps 759 mmHg 73%
    05:00 +24°C° 0 mm 6 mps 759 mmHg 71%
    06:00 +24°C° 0 mm 6 mps 759 mmHg 70%
    07:00 +26°C° 0 mm 6 mps 759 mmHg 64%
    08:00 +27°C° 0 mm 6 mps 760 mmHg 59%
    09:00 +28°C° 0 mm 7 mps 760 mmHg 53%
    10:00 +30°C° 0 mm 6 mps 760 mmHg 47%
    11:00 +33°C° 0 mm 6 mps 759 mmHg 42%
    12:00 +35°C° 0 mm 5 mps 759 mmHg 36%
    13:00 +35°C° 0 mm 5 mps 758 mmHg 36%
    14:00 +36°C° 0 mm 5 mps 757 mmHg 35%
    15:00 +36°C° 0 mm 4 mps 757 mmHg 35%
    16:00 +35°C° 0 mm 4 mps 757 mmHg 39%
    17:00 +34°C° 0 mm 3 mps 757 mmHg 44%
    18:00 +31°C° 0 mm 3 mps 758 mmHg 48%
    19:00 +31°C° 0 mm 2 mps 758 mmHg 50%
    20:00 +30°C° 0 mm 2 mps 759 mmHg 53%
    21:00 +30°C° 0 mm 1 mps 759 mmHg 55%
    22:00 +29°C° 0.1 mm 2 mps 759 mmHg 55%
    23:00 +29°C° 0.1 mm 2 mps 759 mmHg 54%
    Show more